[[{"header":{"parameterUnit":"m.s-1","parameterCategory":1,"la1":30.2991,"la2":30.254,"lo1":-89.0895,"lo2":-89.0444,"dy":0.0017,"dx":0.0017,"nx":28,"ny":28,"refTime":"2025-07-14T03:00:00:Z","depth":0,"parameterNumber":2,"parameterNumberName":"U-component_of_WINDS"},"data":[0,0,0,0,0,0,0,0,0,0,0,0,0,0,0,0,0,0,0,0,0,0,0,0,0,0,0,0,0,0,0,0,0,0,0,0,0,0,0,0,0,0,0,0,0,0,0,0,0,0,0,0,0,0,0,0,0,0,2.3121,2.3123,0,2.3282,2.3283,2.3285,2.3293,2.3292,2.329,2.3288,2.3461,2.3467,2.3473,0,0,0,0,0,0,0,0,0,0,0,0,0,2.283,2.2835,2.3121,2.3123,2.3125,2.3281,2.3283,2.3286,2.3294,2.3291,2.3289,2.3287,2.3459,2.3466,2.3474,0,0,0,0,0,0,0,0,0,0,0,0,0,2.297,2.2837,2.3121,2.3148,2.3152,2.3281,2.3284,2.3286,2.3294,2.3291,2.3289,2.3286,2.3456,2.3466,2.3475,2.3591,0,0,2.3504,2.3508,0,0,0,0,0,0,0,0,2.2962,2.2981,2.3142,2.3146,2.3151,2.3264,2.3244,2.3389,2.3295,2.3241,2.3288,2.3285,2.3398,2.3413,2.3449,2.3599,2.3606,2.3505,2.3511,2.3515,2.3518,0,0,0,0,0,0,0,2.2952,2.2974,2.3185,2.3144,2.315,2.3154,2.3171,2.3272,2.3334,2.3245,2.3246,2.3264,2.34,2.344,2.3453,2.3609,2.3505,2.3513,2.3519,2.3523,2.3861,2.3864,0,0,0,0,0,0,2.2936,2.2966,2.318,2.319,2.3047,2.3162,2.3181,2.3231,2.3333,2.3345,2.3267,2.3264,2.3425,2.3442,2.3459,2.3601,2.3515,2.3524,2.3529,2.3858,2.3862,2.3865,0,0,0,0,0,0,2.293,2.2955,2.3173,2.3078,2.3106,2.317,2.3226,2.3236,2.3275,2.3349,2.3361,2.3295,2.3423,2.3446,2.3557,2.3607,2.3528,2.3537,2.3854,2.3859,2.3864,2.3885,0,0,0,0,0,0,2.2921,2.2953,2.2996,2.3079,2.3111,2.3266,2.3229,2.3241,2.329,2.3289,2.3379,2.3391,2.3423,2.3543,2.3567,2.3619,2.3544,2.385,2.3856,2.3862,2.388,2.389,2.3898,0,0,0,0,0,2.2911,2.2997,2.2998,2.3024,2.3165,2.3269,2.3288,2.332,2.3294,2.3339,2.3386,2.3388,2.3598,2.3554,2.3581,2.3637,2.3847,2.3855,2.3862,2.3876,2.3888,2.3898,0,0,0,0,0,0,2.2922,2.3009,2.301,2.3125,2.3189,2.327,2.3327,2.3332,2.3407,2.3403,2.3443,2.3463,2.3573,2.3617,2.3567,2.3754,2.372,2.3733,2.3721,2.3733,2.3742,2.373,2.3552,0,0,0,0,0,2.2937,2.3011,2.3084,2.3179,2.3211,2.3263,2.331,2.3329,2.3398,2.3426,2.3482,2.3551,2.3632,2.3685,2.3765,2.3886,2.3906,2.3938,2.3947,2.3954,2.3965,2.4033,2.4047,2.389,2.3889,2.3889,0,0,2.2971,2.3027,2.3072,2.3183,2.3234,2.3312,2.3286,2.337,2.3429,2.344,2.3547,2.359,2.3671,2.3787,2.3842,2.3827,2.4013,2.3964,2.3969,2.3976,2.4042,2.4056,2.407,2.3894,2.3894,2.3893,0,0,2.3071,2.3121,2.3205,2.3256,2.3334,2.3368,2.3388,2.3468,2.3496,2.3603,2.3613,2.3685,2.3825,2.3881,2.3928,2.4048,2.4053,2.4073,2.4121,2.4186,2.4199,2.421,2.4253,2.4267,2.4084,2.4084,2.4084,0,2.3103,2.3218,2.3248,2.3331,2.338,2.339,2.3476,2.3526,2.3626,2.3661,2.3642,2.3816,2.3871,2.4001,2.4029,2.4067,2.4093,2.4063,2.4194,2.4205,2.4217,2.4258,2.4274,2.4086,2.4086,2.4085,2.4085,0,2.3254,2.3334,2.3393,2.3486,2.3541,2.3626,2.367,2.3724,2.3738,2.3775,2.3885,2.3951,2.4043,2.4075,2.4092,2.4208,2.4196,2.4185,2.4151,2.4233,2.4272,2.4288,2.4089,2.4088,2.4087,2.4087,0,0,2.3367,2.3473,2.3494,2.3536,2.3622,2.3685,2.3771,2.3858,2.3902,2.3972,2.4045,2.4162,2.4152,2.4206,2.4229,2.4286,2.4376,2.4268,2.4271,2.4286,2.4508,2.4515,2.4533,2.438,2.4383,2.4385,2.4501,0,2.3476,2.3624,2.3653,2.3783,2.3858,2.3868,2.3943,2.4004,2.4041,2.4112,2.4154,2.4235,2.4216,2.4248,2.4305,2.4353,2.4422,2.4345,2.445,2.4454,2.4429,2.4554,2.4562,2.4668,2.4517,2.452,2.4522,0,2.3624,2.3692,2.3829,2.3903,2.3935,2.4001,2.4083,2.415,2.4221,2.4243,2.4302,2.4318,2.4409,2.4371,2.4498,2.4445,2.449,2.452,2.4525,2.4537,2.4492,2.4568,2.4703,2.4718,2.4546,2.4544,2.4543,0,2.3691,2.3819,2.3916,2.3952,2.4041,2.4087,2.4127,2.4195,2.4245,2.4318,2.4351,2.4434,2.448,2.4545,2.4584,2.4553,2.4708,2.4674,2.4731,2.473,2.4764,2.4761,2.4907,2.4793,2.4793,2.4793,2.4792,0,2.381,2.3893,2.3947,2.4007,2.4101,2.4134,2.4227,2.4267,2.4327,2.4397,2.4413,2.4478,2.4526,2.4599,2.4631,2.4731,2.4752,2.4774,2.4782,2.4773,2.477,2.4803,2.4797,2.4797,2.4796,2.4795,2.4794,0,2.3902,2.3941,2.4048,2.4123,2.4144,2.4209,2.4275,2.4335,2.4371,2.4459,2.4482,2.454,2.4627,2.4671,2.4781,2.4802,2.4915,2.4919,2.489,2.4893,2.4948,2.4942,2.5121,2.5146,2.5015,2.5016,2.5017,0,2.3975,2.4038,2.4119,2.4165,2.4205,2.4279,2.4329,2.4365,2.4417,2.4502,2.4552,2.4639,2.471,2.4848,2.4902,2.4986,2.4992,2.5048,2.5005,2.4993,2.4992,2.4988,2.4994,2.5056,2.5057,2.5058,2.5059,0,2.4101,2.4116,2.4186,2.4263,2.4321,2.4384,2.4447,2.4485,2.4531,2.4589,2.4676,2.473,2.484,2.4927,2.5014,2.5059,2.5068,2.5072,2.509,2.5082,2.5062,2.5073,2.4911,2.5068,2.5067,2.5067,2.5066,2.5066,2.4185,2.4242,2.4306,2.4384,2.4433,2.4491,2.455,2.4592,2.4664,2.4754,2.4772,2.4864,2.4934,2.5051,2.5098,2.5173,2.5161,2.5187,2.5194,2.5199,2.5201,2.505,2.5189,2.5189,2.5189,2.5188,2.5188,0,2.4311,2.4353,2.4423,2.4508,2.4569,2.4568,2.4637,2.4689,2.4769,2.4832,2.49,2.5,2.5084,2.5143,2.5229,2.5277,2.5283,2.5298,2.5295,2.5305,2.5207,2.5183,2.5292,2.5292,2.5292,2.5292,2.5292,2.5291,2.4384,2.4479,2.4502,2.4623,2.4665,2.4752,2.4791,2.4845,2.4895,2.5004,2.5072,2.5109,2.5172,2.5261,2.5339,2.5354,2.5385,2.54,2.5416,2.5323,2.5312,2.5302,2.5279,2.5407,2.5407,2.5508,2.5509,2.551]},{"header":{"parameterUnit":"m.s-1","parameterCategory":1,"la1":30.2991,"la2":30.254,"lo1":-89.0895,"lo2":-89.0444,"dy":0.0017,"dx":0.0017,"nx":28,"ny":28,"refTime":"2025-07-14T03:00:00:Z","depth":0,"parameterNumber":3,"parameterNumberName":"V-component_of_WINDS"},"data":[0,0,0,0,0,0,0,0,0,0,0,0,0,0,0,0,0,0,0,0,0,0,0,0,0,0,0,0,0,0,0,0,0,0,0,0,0,0,0,0,0,0,0,0,0,0,0,0,0,0,0,0,0,0,0,0,0,0,1.8193,1.8193,0,1.8182,1.8182,1.8182,1.8145,1.8144,1.8143,1.8143,1.8132,1.8132,1.8133,0,0,0,0,0,0,0,0,0,0,0,0,0,1.8182,1.8182,1.8193,1.8193,1.8192,1.8182,1.8182,1.8182,1.8145,1.8144,1.8143,1.8142,1.8132,1.8132,1.8133,0,0,0,0,0,0,0,0,0,0,0,0,0,1.818,1.8182,1.8193,1.8173,1.8171,1.8182,1.8182,1.8182,1.8145,1.8144,1.8143,1.8142,1.8132,1.8132,1.8133,1.8162,0,0,1.8135,1.8136,0,0,0,0,0,0,0,0,1.8181,1.8181,1.8176,1.8174,1.8172,1.8164,1.8174,1.8175,1.8146,1.8155,1.8143,1.8141,1.8144,1.8143,1.8144,1.8162,1.8161,1.8135,1.8136,1.8136,1.8136,0,0,0,0,0,0,0,1.8181,1.8181,1.8188,1.8176,1.8174,1.8165,1.8163,1.8174,1.8156,1.8154,1.8152,1.8151,1.8142,1.8143,1.8143,1.8161,1.8135,1.8136,1.8136,1.8137,1.8202,1.8203,0,0,0,0,0,0,1.8184,1.8181,1.8189,1.8188,1.8173,1.8166,1.8164,1.8168,1.8156,1.8153,1.8152,1.8149,1.8143,1.8143,1.8143,1.8176,1.8136,1.8137,1.8137,1.8201,1.8202,1.8204,0,0,0,0,0,0,1.8184,1.8185,1.8189,1.8184,1.8184,1.8167,1.8172,1.8168,1.8169,1.8154,1.8151,1.8156,1.8142,1.8142,1.8158,1.8175,1.8137,1.8138,1.8199,1.8201,1.8203,1.8242,0,0,0,0,0,0,1.8183,1.8185,1.8196,1.8185,1.8184,1.8204,1.8173,1.8169,1.817,1.8167,1.8157,1.8155,1.8141,1.8157,1.8158,1.8175,1.8138,1.8198,1.82,1.8202,1.8239,1.8245,1.825,0,0,0,0,0,1.8183,1.8207,1.8196,1.8198,1.8198,1.8205,1.8205,1.8188,1.8172,1.8183,1.8173,1.8155,1.8173,1.8159,1.816,1.8178,1.8196,1.8199,1.8202,1.8237,1.8244,1.825,0,0,0,0,0,0,1.8221,1.8206,1.8193,1.8215,1.8212,1.8199,1.8212,1.8197,1.8198,1.8195,1.8174,1.8172,1.8191,1.8186,1.817,1.8205,1.8182,1.8185,1.8207,1.8214,1.822,1.822,1.8139,0,0,0,0,0,1.8232,1.8239,1.8225,1.8246,1.8245,1.8229,1.8231,1.8219,1.8215,1.8213,1.8205,1.8202,1.8207,1.821,1.8214,1.8239,1.8236,1.8251,1.8257,1.8262,1.8264,1.8277,1.8283,1.8213,1.8213,1.8213,0,0,1.8254,1.8247,1.8253,1.8253,1.8249,1.8257,1.8228,1.8238,1.8243,1.8215,1.8229,1.8223,1.8218,1.8238,1.8247,1.8235,1.8283,1.8265,1.8269,1.8269,1.828,1.8287,1.8293,1.8215,1.8215,1.8215,0,0,1.8299,1.8295,1.8311,1.8307,1.8302,1.8291,1.8295,1.8285,1.8279,1.8293,1.8272,1.8278,1.8287,1.8285,1.8284,1.8328,1.8312,1.833,1.8359,1.8371,1.8377,1.8381,1.8396,1.8402,1.8333,1.8333,1.8334,0,1.8328,1.8339,1.8321,1.8332,1.8332,1.8307,1.8323,1.832,1.8317,1.8318,1.8304,1.8314,1.8309,1.8328,1.8339,1.834,1.8344,1.8331,1.8377,1.8382,1.8386,1.84,1.8406,1.8336,1.8335,1.8335,1.8335,0,1.8374,1.8382,1.8396,1.8392,1.8394,1.8408,1.8392,1.8396,1.8384,1.8374,1.8389,1.8382,1.8383,1.8387,1.8375,1.8404,1.8397,1.8381,1.8357,1.8395,1.8408,1.8413,1.8339,1.8338,1.8337,1.8337,0,0,1.8442,1.8428,1.8433,1.8431,1.8423,1.8429,1.8442,1.8443,1.8447,1.8445,1.8455,1.8463,1.8448,1.8448,1.8435,1.8446,1.8481,1.8428,1.8428,1.8438,1.8512,1.8524,1.853,1.847,1.8471,1.8471,1.8512,0,1.8484,1.8504,1.8488,1.8511,1.8518,1.8494,1.8504,1.8501,1.8493,1.8497,1.8488,1.8494,1.8474,1.8474,1.8484,1.8474,1.8495,1.8471,1.8478,1.8479,1.8479,1.8537,1.8549,1.8588,1.8517,1.8518,1.8519,0,1.8535,1.8535,1.8559,1.8549,1.8551,1.8561,1.8561,1.8566,1.8562,1.8555,1.8555,1.8539,1.8551,1.8528,1.8543,1.8527,1.8529,1.8525,1.8527,1.8526,1.85,1.8537,1.86,1.8606,1.8527,1.8526,1.8525,0,1.8581,1.8588,1.8602,1.8601,1.8591,1.8598,1.8594,1.8588,1.859,1.859,1.8591,1.8593,1.8593,1.8595,1.858,1.8565,1.8597,1.8573,1.8592,1.8592,1.8599,1.8599,1.8662,1.8602,1.8602,1.8602,1.8602,0,1.8629,1.8644,1.8623,1.8632,1.8648,1.863,1.8647,1.864,1.8635,1.8642,1.8622,1.8629,1.861,1.8615,1.8604,1.8618,1.8619,1.8614,1.861,1.8615,1.8616,1.8615,1.8612,1.8603,1.8603,1.8603,1.8602,0,1.8683,1.8669,1.8684,1.8672,1.867,1.8682,1.8672,1.868,1.8671,1.868,1.8682,1.8667,1.8672,1.8658,1.8661,1.8654,1.8674,1.8667,1.8675,1.8673,1.8692,1.869,1.8757,1.8765,1.87,1.8701,1.8701,0,1.8714,1.8725,1.8715,1.8718,1.8715,1.8721,1.8722,1.8705,1.8708,1.8703,1.8712,1.8715,1.8717,1.8727,1.8716,1.8719,1.8711,1.8734,1.8711,1.8715,1.8711,1.871,1.8711,1.8739,1.874,1.874,1.8741,0,1.877,1.8763,1.8766,1.8767,1.8769,1.8769,1.8768,1.8772,1.8753,1.8757,1.8762,1.8764,1.8767,1.877,1.8771,1.8766,1.8751,1.8748,1.8753,1.8757,1.8761,1.8759,1.8688,1.8747,1.8746,1.8746,1.8745,1.8745,1.8813,1.8821,1.8815,1.882,1.8817,1.8816,1.8822,1.8814,1.8818,1.8819,1.8808,1.8816,1.8811,1.8809,1.8807,1.8812,1.8802,1.8808,1.8809,1.8811,1.8814,1.8761,1.8812,1.8812,1.8812,1.8812,1.8812,0,1.8867,1.8862,1.8866,1.8865,1.8868,1.8853,1.8851,1.8854,1.8861,1.8858,1.886,1.8866,1.8869,1.8859,1.8862,1.8868,1.8861,1.8869,1.8868,1.8867,1.8824,1.8819,1.8875,1.8875,1.8875,1.8875,1.8875,1.8875,1.8896,1.8909,1.8901,1.8913,1.8908,1.8915,1.8915,1.8914,1.8911,1.8918,1.8921,1.8915,1.8909,1.8911,1.8913,1.891,1.8912,1.8922,1.8917,1.8876,1.887,1.8864,1.886,1.8923,1.8923,1.896,1.896,1.896]}]]